BERGEN / FLESLAND current weather conditions

sailwx.info

Wind from 040 at 7 knots

Air temperature -3.0° C
Dewpoint -8.0° C

Last reported at 2015-Feb-01 07:20 UTC.
Time now 2015-Feb-01 08:46 UTC

Location: N 60°17' E 005°14'.
View on Google Maps.

See reports from other nearby stations

  
Tides and Currents Weather Stations Pressure Air Temp Water Temp Dewpoint Dewpoint Depression Visibility Wind Speed Wind Dir Waves Ship Positions
date/time (UTC)wind fromknots sea level pressurealtimeterstation pressurevisibilityair tempwater tempwave heightnotes
2015-Feb-01 07:20 040 7 -3.0
2015-Feb-01 06:50 360 6 5.4-4.0
2015-Feb-01 06:20 360 7 5.4-3.0
2015-Feb-01 05:50 360 6 5.4-3.0
2015-Feb-01 05:20 350 10 -3.0
2015-Feb-01 04:50 340 8 -3.0
2015-Feb-01 04:20 010 5 -3.0
2015-Feb-01 03:50 360 6 -3.0
2015-Feb-01 03:20 020 5 -3.0
2015-Feb-01 01:50 -3.0
2015-Feb-01 00:50 020 3 -3.0
2015-Jan-31 23:50 050 4 -3.0
2015-Jan-31 22:50 010 4 -2.0
2015-Jan-31 22:20 -3.0
2015-Jan-31 21:50 -3.0
2015-Jan-31 21:20 -2.0
2015-Jan-31 20:50 020 4 -1.0
2015-Jan-31 20:20 020 5 -1.0
2015-Jan-31 19:50 -2.0
2015-Jan-31 19:20 020 4 -1.0
2015-Jan-31 18:50 030 4 -1.0
2015-Jan-31 18:20 020 3 -1.0
2015-Jan-31 17:50 5.4-0.0
2015-Jan-31 17:20 040 2 5.4-0.0
2015-Jan-31 16:50 020 3 5.4 1.0
2015-Jan-31 16:20 010 3 5.4 1.0
2015-Jan-31 15:50 340 5 5.4 1.0
2015-Jan-31 15:20 260 3 5.4 2.0
2015-Jan-31 14:50 150 1 5.4 2.0
2015-Jan-31 14:20 130 3 5.4 2.0
2015-Jan-31 13:50 5.4 3.0
2015-Jan-31 13:20 5.4 3.0
2015-Jan-31 12:50 160 2 5.4 3.0
2015-Jan-31 12:20 140 1 5.4 3.0
2015-Jan-31 11:50 5.4 2.0
2015-Jan-31 11:20 5.4 2.0
2015-Jan-31 10:50 020 3 5.4 2.0
2015-Jan-31 10:20 080 3 5.4 2.0
2015-Jan-31 09:50 5.4 2.0
2015-Jan-31 09:20 110 5 5.4 2.0
2015-Jan-31 08:50 110 7 5.4 2.0 Showers in the vicinity.
2015-Jan-31 08:20 120 7 5.4 2.0 Showers in the vicinity.
2015-Jan-31 07:50 120 6 5.4 2.0
2015-Jan-31 07:20 120 7 5.4 2.0
2015-Jan-31 06:50 120 8 5.4 2.0
2015-Jan-31 06:20 130 11 5.4 2.0 Showers in the vicinity.
2015-Jan-31 05:50 120 11 5.4 1.0 Showers in the vicinity.
2015-Jan-31 05:20 130 12 5.4 1.0 Light snow showers.
2015-Jan-31 04:50 120 11 5.4 1.0 Light snow showers.
2015-Jan-31 04:20 120 10 4.9 1.0 Light snow showers.
2015-Jan-31 03:50 120 12 2.7 1.0 Light snow showers.
2015-Jan-31 02:50 120 13 5.4 1.0 Light snow showers.
2015-Jan-31 01:50 120 12 5.4 1.0 Light snow showers.
2015-Jan-31 00:50 130 15 4.3 2.0 Light snow showers.
2015-Jan-30 23:50 140 16 gusting 26 5.4 3.0 Light snow showers.
2015-Jan-30 23:20 130 14 gusting 25 5.4 3.0 Light rain showers.
2015-Jan-30 22:50 140 13 5.4 2.0 Light rain showers.
2015-Jan-30 22:20 130 13 5.4 2.0 Light rain showers.
2015-Jan-30 21:50 140 18 5.4 3.0 Light snow showers.
2015-Jan-30 21:20 140 15 gusting 25 5.4 3.0 Light snow rain.
2015-Jan-30 20:50 140 15 gusting 26 5.4 3.0 Snow rain.
2015-Jan-30 20:20 140 16 gusting 29 5.4 2.0 Light snow rain.
2015-Jan-30 19:50 140 16 gusting 27 4.9 2.0 Light snow showers.
2015-Jan-30 19:20 140 14 5.4 2.0 Light snow rain.
2015-Jan-30 18:50 140 13 5.4 2.0 Light snow rain.
2015-Jan-30 18:20 140 15 gusting 25 5.4 1.0 Light rain showers.
2015-Jan-30 17:50 140 17 gusting 27 5.4 1.0 Light rain showers.
2015-Jan-30 17:20 140 17 gusting 27 3.8 1.0 Light rain showers.
2015-Jan-30 16:50 150 19 5.4 2.0 Light rain showers.
2015-Jan-30 16:20 140 19 3.2 2.0 Light rain showers.
2015-Jan-30 15:50 150 17 3.2 1.0 Light rain showers.
2015-Jan-30 15:20 140 17 gusting 27 2.7 1.0 Light rain showers.
2015-Jan-30 14:50 140 18 gusting 29 2.4 1.0 Light rain showers.
2015-Jan-30 14:20 150 18 gusting 27 1.9 1.0 Snow showers.
2015-Jan-30 13:50 140 17 gusting 27 5.4 2.0 Light rain showers.
2015-Jan-30 13:20 140 19 gusting 29 3.2 1.0 Light rain snow.
2015-Jan-30 12:50 140 20 3.8 1.0 Light rain snow.
2015-Jan-30 12:20 140 18 gusting 27 2.7 1.0 Light snow rain.
2015-Jan-30 11:50 140 18 2.7 1.0 Light rain snow.
2015-Jan-30 11:20 140 17 3.2 1.0 Light rain snow.
2015-Jan-30 10:50 140 16 2.7 1.0 Light rain snow.
2015-Jan-30 10:20 140 16 3.2 1.0 Light rain snow.
2015-Jan-30 09:50 140 15 gusting 27 5.4 2.0 Light rain snow.
2015-Jan-30 09:20 150 19 4.9 1.0 Light rain snow.
2015-Jan-30 08:50 140 19 3.2 1.0 Light snow rain.
2015-Jan-30 08:20 140 15 3.2 1.0 Light snow rain.